Terug naar catalogus

STARLINK-4187

ActiefCommunicatieVLEO
NORAD 52850·PAYLOAD·🇺🇸 United States

Gelanceerd Jun 17, 2022 vanaf Cape Canaveral Space Force Station

Loading…

Volgende Passages (komende 24 uur)

TLE

VersSource: CelesTrak SupGP

Epoch: Sep 15, 2026, 02:31 UTC

1 52850C 22062W   26258.10534722 -.00026900  00000+0 -86498-3 0  2583
2 52850  53.1565 254.0031 0001338  86.3663 346.6663 15.31716928    17

Volg STARLINK-4187 in realtime met AllMySat

Download on the App Store